Home   Weather   Germering   Past weeks
Flag for Germany

Past Weather in Germering, Bavaria, Germany — Yesterday and Last 2 Weeks

Now
66 °F

Mostly cloudy.


Feels Like: 66 °F
Forecast: 63 / 52 °F
Wind: 14 mph from South

Location: Oberpfaffenhofen

Current Time: Oct 21, 2019 at 12:38:36 am

Latest Report: Oct 20, 2019 at 11:50 pm


Visibility: N/A

Pressure: 29.86 "Hg (28.04 "Hg at 538m altitude)

Humidity: 49%

Dew Point: 46 °F

Location of GermeringLocation

Past Weather in Germering — Graph

°F

Germering Temperature Yesterday

Maximum temperature yesterday: 72 °F (at 2:20 pm)
Minimum temperature yesterday: 41 °F (at 3:50 am)
Average temperature yesterday: 56 °F

High & Low Weather Summary for the Past Weeks

 TemperatureHumidityPressure
High75 °F (Oct 13, 2:50 pm)100% (Oct 5, 11:20 pm)30.21 "Hg (Oct 5, 11:20 pm)
Low36 °F (Oct 6, 3:20 am)36% (Oct 15, 2:50 pm)29.68 "Hg (Oct 15, 4:50 pm)
Average53 °F80%29.99 "Hg
* Reported Oct 5 10:20 pm — Oct 20 10:50 pm, Germering. Weather by CustomWeather, © 2019

Note: Actual official high and low records may vary slightly from our data, if they occured in-between our weather recording intervals... More about our weather records

Advertising

Germering Weather History for the Previous 24 Hours

Scroll right to see more
 ConditionsComfort  
Time TempWeatherWind HumidityBarometerVisibility
10:50 pm
Sun, Oct 20
64 °FClear.13 mph52%29.86 "HgN/A
10:20 pm66 °FClear.14 mph49%29.86 "HgN/A
9:50 pm66 °FClear.14 mph49%29.83 "HgN/A
9:20 pm66 °FPassing clouds.13 mph46%29.83 "HgN/A
8:50 pm66 °FPassing clouds.14 mph46%29.83 "HgN/A
8:20 pm66 °FClear.15 mph46%29.83 "HgN/A
7:50 pm66 °FClear.13 mph46%29.83 "HgN/A
7:20 pm66 °FPassing clouds.13 mph46%29.83 "HgN/A
6:50 pm64 °FPassing clouds.8 mph52%29.83 "HgN/A
6:20 pm66 °FClear.8 mph49%29.80 "HgN/A
5:50 pm66 °FSunny.8 mph49%29.80 "HgN/A
5:20 pm66 °FSunny.10 mph49%29.83 "HgN/A
4:50 pm68 °FScattered clouds.12 mph46%29.83 "HgN/A
4:20 pm68 °FPassing clouds.12 mph49%29.83 "HgN/A
3:50 pm70 °FSunny.14 mph46%29.83 "HgN/A
3:20 pm70 °FPassing clouds.15 mph46%29.83 "HgN/A
2:50 pm72 °FSunny.8 mph44%29.83 "Hg10 mi
2:20 pm72 °FPassing clouds.12 mph44%29.83 "HgN/A
1:50 pm70 °FSunny.3 mph60%29.83 "HgN/A
1:20 pm64 °FSunny.6 mph73%29.83 "HgN/A
12:50 pm64 °FSunny.7 mph73%29.83 "HgN/A
12:20 pm61 °FSunny.5 mph77%29.83 "HgN/A
11:50 am59 °FSunny.5 mph77%29.83 "HgN/A
11:20 am57 °FSunny.3 mph88%29.83 "HgN/A
10:50 am54 °FSunny.3 mph100%29.83 "HgN/A
10:20 am52 °FPassing clouds.3 mph100%29.83 "HgN/A
9:50 am48 °FScattered clouds.2 mph100%29.83 "HgN/A
9:20 am45 °FScattered clouds.2 mph100%29.83 "Hg4 mi
8:50 am45 °FPartly sunny.3 mph93%29.83 "Hg1 mi
8:20 am43 °FDense fog.2 mph100%29.83 "Hg1 mi
7:50 am43 °FDense fog.2 mph100%29.83 "Hg0 mi
7:20 am41 °FDense fog.2 mph100%29.83 "Hg0 mi
6:50 am41 °FDense fog.1 mph100%29.83 "Hg0 mi
6:20 am43 °FDense fog.1 mph100%29.83 "Hg0 mi
5:50 am41 °FDense fog.3 mph100%29.83 "Hg0 mi
5:20 am43 °FDense fog.3 mph100%29.83 "Hg0 mi
4:50 am43 °FDense fog.5 mph100%29.83 "Hg0 mi
4:20 am41 °FDense fog.3 mph100%29.83 "Hg0 mi
3:50 am41 °FDense fog.3 mph100%29.83 "Hg0 mi
3:20 am43 °FDense fog.2 mph93%29.83 "Hg0 mi
2:50 am43 °FPassing clouds.2 mph100%29.83 "Hg2 mi
2:20 am43 °FPassing clouds.No wind100%29.83 "Hg1 mi
1:50 am43 °FPassing clouds.5 mph100%29.83 "Hg2 mi
1:20 am45 °FClear.1 mph93%29.83 "Hg2 mi
12:50 am45 °FPassing clouds.1 mph100%29.83 "Hg2 mi
12:20 am48 °FPassing clouds.3 mph94%29.83 "Hg4 mi
Weather by CustomWeather, © 2019

See weather overview